Location: Waco, TX
(31.5480°N, 97.1670°W)
Time: 11:59:03
(UTC-05:00)

ISS - Pass Details

Date: 15 August 2018
Orbit: 401 x 409 km, 51.6° (Epoch: 19 August)

Event Time Altitude Azimuth Distance (km) Brightness Sun altitude
Rises 19:42:50 0° 306° (NW) 2,315 1.5 5.1°
Reaches altitude 10° 19:45:01 10° 297° (WNW) 1,455 1.0 4.7°
Maximum altitude 19:48:01 35° 230° (SW) 670 -2.2 4.1°
Drops below altitude 10° 19:51:02 10° 162° (SSE) 1,451 -1.3 3.4°
Sets 19:53:12 0° 153° (SSE) 2,308 -0.4 3.0°
